Location: Sungai Apap
(2.6167°N, 113.3833°E)
Time: 14:16:08
(UTC+00:00)

Cosmos 2208 Rocket - Pass Details

Date: 25 May 2024
Orbit: 752 x 803 km, 74.0° (Epoch: 12 June)

Event Time Altitude Azimuth Distance (km) Brightness Sun altitude
Rises 20:26:29 0° 344° (NNW) 3,203 7.3 -26.0°
Reaches altitude 10° 20:28:51 10° 343° (NNW) 2,275 6.5 -25.5°
Maximum altitude 20:33:59 75° 259° (WSW) 779 3.8 -24.3°
Enters shadow 20:35:28 46° 185° (S) 997 4.3 -24.0°
